DNO804 LGAV-LGIO

Flight info

Callsign DNO804
Flight time 0h 37m
Altitude 24000
Route KOR L53 GARTA L611 IBTIN
Aircraft A320/M-SDE2GHIJ1RTWY/LB1

Departure

Time 2026-05-06 16:45
Airport Athens Eleftherios Venizelos International Airport (LGAV)

Arrival

Time 2026-05-06 17:23
Airport Ioannina King Pyrrhus National Airport (LGIO)
Time Latitude Longitude Altitude Speed Heading
2026-05-06 16:12 37.94117 23.95379 300 ft 0 kts 217°
2026-05-06 16:34 37.94125 23.95387 302 ft 4 kts 216°
2026-05-06 16:35 37.94147 23.95407 300 ft 4 kts 213°
2026-05-06 16:35 37.94170 23.95424 302 ft 4 kts 208°
2026-05-06 16:35 37.94194 23.95439 300 ft 4 kts 199°
2026-05-06 16:35 37.94220 23.95446 300 ft 4 kts 171°
2026-05-06 16:36 37.94234 23.95439 300 ft 0 kts 127°
2026-05-06 16:39 37.94234 23.95440 300 ft 1 kts 127°
2026-05-06 16:39 37.94225 23.95454 300 ft 3 kts 128°
2026-05-06 16:39 37.94205 23.95485 302 ft 6 kts 130°
2026-05-06 16:40 37.94162 23.95518 300 ft 9 kts 160°
2026-05-06 16:40 37.94115 23.95583 299 ft 12 kts 128°
2026-05-06 16:40 37.94087 23.95689 297 ft 15 kts 66°
2026-05-06 16:40 37.94173 23.95780 299 ft 17 kts 37°
2026-05-06 16:41 37.94240 23.95842 299 ft 18 kts 36°
2026-05-06 16:41 37.94386 23.95981 300 ft 21 kts 37°
2026-05-06 16:41 37.94465 23.96056 300 ft 22 kts 36°
2026-05-06 16:41 37.94594 23.96178 301 ft 24 kts 37°
2026-05-06 16:42 37.94733 23.96310 301 ft 24 kts 37°
2026-05-06 16:42 37.94862 23.96432 301 ft 24 kts 37°
2026-05-06 16:42 37.94999 23.96561 303 ft 25 kts 37°
2026-05-06 16:42 37.95132 23.96687 304 ft 20 kts 37°
2026-05-06 16:43 37.95247 23.96796 303 ft 19 kts 37°
2026-05-06 16:43 37.95340 23.96885 304 ft 17 kts 37°
2026-05-06 16:43 37.95389 23.96953 303 ft 9 kts 81°
2026-05-06 16:43 37.95356 23.97017 305 ft 8 kts 158°
2026-05-06 16:44 37.95301 23.97025 308 ft 7 kts 174°
2026-05-06 16:44 37.95252 23.97031 311 ft 7 kts 174°
2026-05-06 16:44 37.95199 23.97027 310 ft 9 kts 206°
2026-05-06 16:44 37.95108 23.96941 310 ft 32 kts 216°
2026-05-06 16:45 37.94735 23.96588 300 ft 99 kts 217°
2026-05-06 16:45 37.94038 23.95922 286 ft 149 kts 218°
2026-05-06 16:45 37.93155 23.95128 761 ft 157 kts 211°
2026-05-06 16:45 37.92195 23.94473 1450 ft 156 kts 207°
2026-05-06 16:46 37.91236 23.93822 2078 ft 160 kts 207°
2026-05-06 16:46 37.90188 23.93110 2409 ft 182 kts 208°
2026-05-06 16:46 37.89008 23.92303 2693 ft 206 kts 208°
2026-05-06 16:46 37.87674 23.91387 3071 ft 230 kts 209°
2026-05-06 16:47 37.86213 23.90384 3714 ft 244 kts 209°
2026-05-06 16:47 37.84756 23.89135 4286 ft 262 kts 221°
2026-05-06 16:47 37.83475 23.87474 5163 ft 266 kts 234°
2026-05-06 16:47 37.82508 23.85472 6058 ft 269 kts 246°
2026-05-06 16:48 37.82030 23.83186 6935 ft 270 kts 269°
2026-05-06 16:48 37.82207 23.80811 7776 ft 274 kts 279°
2026-05-06 16:48 37.82504 23.78426 8656 ft 276 kts 280°
2026-05-06 16:48 37.82818 23.76008 9497 ft 281 kts 280°
2026-05-06 16:49 37.83141 23.73558 10272 ft 287 kts 280°
2026-05-06 16:49 37.83482 23.70963 10542 ft 310 kts 280°
2026-05-06 16:49 37.83845 23.68159 10754 ft 333 kts 280°
2026-05-06 16:49 37.84223 23.65199 11137 ft 347 kts 280°
2026-05-06 16:50 37.84606 23.62157 11785 ft 352 kts 280°
2026-05-06 16:50 37.84991 23.59080 12478 ft 356 kts 280°
2026-05-06 16:50 37.85379 23.55974 13179 ft 359 kts 280°
2026-05-06 16:50 37.85771 23.52837 13872 ft 362 kts 281°
2026-05-06 16:51 37.86165 23.49671 14490 ft 365 kts 281°
2026-05-06 16:51 37.86561 23.46484 15106 ft 367 kts 281°
2026-05-06 16:51 37.86960 23.43279 15719 ft 370 kts 281°
2026-05-06 16:51 37.87361 23.40055 16312 ft 372 kts 281°
2026-05-06 16:52 37.87766 23.36810 16928 ft 374 kts 281°
2026-05-06 16:52 37.88171 23.33554 17546 ft 377 kts 281°
2026-05-06 16:52 37.88577 23.30268 18163 ft 379 kts 281°
2026-05-06 16:52 37.88985 23.26960 18730 ft 381 kts 281°
2026-05-06 16:53 37.89394 23.23631 19272 ft 384 kts 281°
2026-05-06 16:53 37.89807 23.20278 19815 ft 387 kts 281°
2026-05-06 16:53 37.90222 23.16910 20355 ft 389 kts 281°
2026-05-06 16:53 37.90640 23.13503 20865 ft 392 kts 281°
2026-05-06 16:54 37.91057 23.10086 21349 ft 395 kts 281°
2026-05-06 16:54 37.91477 23.06632 21804 ft 398 kts 281°
2026-05-06 16:54 37.91897 23.03151 22263 ft 401 kts 281°
2026-05-06 16:54 37.92319 22.99644 22724 ft 404 kts 281°
2026-05-06 16:55 37.92830 22.96138 23170 ft 405 kts 287°
2026-05-06 16:55 37.93781 22.92776 23620 ft 406 kts 296°
2026-05-06 16:55 37.95187 22.89671 23952 ft 407 kts 305°
2026-05-06 16:55 37.96815 22.86728 24045 ft 412 kts 306°
2026-05-06 16:56 37.98482 22.83722 24072 ft 422 kts 306°
2026-05-06 16:56 38.00182 22.80649 24065 ft 426 kts 305°
2026-05-06 16:56 38.01882 22.77566 24061 ft 427 kts 305°
2026-05-06 16:56 38.03584 22.74464 24064 ft 427 kts 305°
2026-05-06 16:57 38.05276 22.71372 24074 ft 428 kts 305°
2026-05-06 16:57 38.06971 22.68268 24073 ft 428 kts 305°
2026-05-06 16:57 38.08667 22.65165 24073 ft 428 kts 305°
2026-05-06 16:57 38.10361 22.62070 24074 ft 428 kts 305°
2026-05-06 16:58 38.12064 22.58960 24074 ft 428 kts 305°
2026-05-06 16:58 38.13759 22.55864 24076 ft 427 kts 305°
2026-05-06 16:58 38.15455 22.52762 24072 ft 427 kts 305°
2026-05-06 16:58 38.17150 22.49659 24072 ft 427 kts 305°
2026-05-06 16:59 38.18844 22.46555 24070 ft 427 kts 305°
2026-05-06 16:59 38.20535 22.43454 24069 ft 427 kts 304°
2026-05-06 16:59 38.22225 22.40346 24068 ft 427 kts 304°
2026-05-06 16:59 38.23913 22.37233 24067 ft 427 kts 304°
2026-05-06 17:00 38.25598 22.34126 24066 ft 428 kts 304°
2026-05-06 17:00 38.27286 22.31008 24070 ft 428 kts 304°
2026-05-06 17:00 38.28973 22.27887 24071 ft 428 kts 304°
2026-05-06 17:00 38.30665 22.24757 24080 ft 428 kts 304°
2026-05-06 17:01 38.32353 22.21639 24082 ft 427 kts 304°
2026-05-06 17:01 38.34035 22.18531 24087 ft 427 kts 304°
2026-05-06 17:01 38.35719 22.15417 24090 ft 427 kts 304°
2026-05-06 17:01 38.37403 22.12302 24085 ft 427 kts 304°
2026-05-06 17:02 38.39086 22.09183 24083 ft 427 kts 304°
2026-05-06 17:02 38.40770 22.06060 24087 ft 427 kts 304°
2026-05-06 17:02 38.42452 22.02934 24086 ft 427 kts 304°
2026-05-06 17:02 38.44131 21.99804 24089 ft 427 kts 304°
2026-05-06 17:03 38.45803 21.96681 24089 ft 427 kts 304°
2026-05-06 17:03 38.47479 21.93547 24085 ft 427 kts 304°
2026-05-06 17:03 38.49159 21.90403 24090 ft 428 kts 304°
2026-05-06 17:03 38.50830 21.87272 24086 ft 428 kts 304°
2026-05-06 17:04 38.52505 21.84133 24087 ft 427 kts 304°
2026-05-06 17:04 38.54180 21.80993 24086 ft 428 kts 304°
2026-05-06 17:04 38.55858 21.77854 24082 ft 428 kts 304°
2026-05-06 17:04 38.57555 21.74679 24072 ft 428 kts 304°
2026-05-06 17:05 38.59234 21.71531 24072 ft 429 kts 304°
2026-05-06 17:05 38.60914 21.68379 24068 ft 429 kts 303°
2026-05-06 17:05 38.62591 21.65223 24073 ft 429 kts 303°
2026-05-06 17:05 38.64264 21.62060 24069 ft 429 kts 303°
2026-05-06 17:06 38.65941 21.58887 24071 ft 429 kts 303°
2026-05-06 17:06 38.67593 21.55765 24071 ft 429 kts 303°
2026-05-06 17:06 38.69262 21.52604 24087 ft 430 kts 303°
2026-05-06 17:06 38.70942 21.49421 24075 ft 430 kts 303°
2026-05-06 17:07 38.72613 21.46256 24088 ft 430 kts 303°
2026-05-06 17:07 38.74288 21.43081 24083 ft 430 kts 303°
2026-05-06 17:07 38.75968 21.39898 24084 ft 430 kts 303°
2026-05-06 17:07 38.77641 21.36722 24085 ft 430 kts 303°
2026-05-06 17:08 38.79307 21.33552 23906 ft 427 kts 303°
2026-05-06 17:08 38.80961 21.30401 23671 ft 425 kts 303°
2026-05-06 17:08 38.82601 21.27283 23013 ft 419 kts 303°
2026-05-06 17:08 38.84219 21.24204 22334 ft 413 kts 303°
2026-05-06 17:09 38.85815 21.21161 21666 ft 408 kts 303°
2026-05-06 17:09 38.87387 21.18158 21005 ft 404 kts 303°
2026-05-06 17:09 38.88949 21.15175 20366 ft 401 kts 304°
2026-05-06 17:09 38.90497 21.12215 19733 ft 397 kts 303°
2026-05-06 17:10 38.92027 21.09276 19133 ft 394 kts 303°
2026-05-06 17:10 38.93568 21.06319 18536 ft 392 kts 303°
2026-05-06 17:10 38.95055 21.03466 17901 ft 389 kts 303°
2026-05-06 17:10 38.96678 21.00717 17355 ft 384 kts 312°
2026-05-06 17:11 38.98677 20.98471 16781 ft 381 kts 324°
2026-05-06 17:11 39.00980 20.96819 16202 ft 379 kts 335°
2026-05-06 17:11 39.03491 20.95821 15604 ft 378 kts 347°
2026-05-06 17:11 39.06081 20.95283 15001 ft 376 kts 349°
2026-05-06 17:12 39.08658 20.94768 14384 ft 374 kts 349°
2026-05-06 17:12 39.11249 20.94250 13726 ft 372 kts 349°
2026-05-06 17:12 39.13800 20.93732 13062 ft 370 kts 349°
2026-05-06 17:12 39.16296 20.93220 12849 ft 355 kts 349°
2026-05-06 17:13 39.17880 20.92893 12758 ft 339 kts 349°
2026-05-06 17:13 39.20121 20.92434 12624 ft 313 kts 348°
2026-05-06 17:13 39.22214 20.92009 12308 ft 298 kts 348°
2026-05-06 17:13 39.24240 20.91594 11778 ft 292 kts 348°
2026-05-06 17:14 39.26234 20.91180 11219 ft 288 kts 348°
2026-05-06 17:14 39.28173 20.90777 10836 ft 278 kts 348°
2026-05-06 17:14 39.30060 20.90385 10644 ft 275 kts 348°
2026-05-06 17:14 39.31944 20.89998 10512 ft 271 kts 348°
2026-05-06 17:15 39.33772 20.89623 10397 ft 262 kts 348°
2026-05-06 17:15 39.35549 20.89248 10271 ft 255 kts 347°
2026-05-06 17:15 39.37286 20.88876 10166 ft 251 kts 347°
2026-05-06 17:15 39.39007 20.88510 10007 ft 252 kts 347°
2026-05-06 17:16 39.40757 20.88137 9579 ft 256 kts 348°
2026-05-06 17:16 39.42524 20.87762 9185 ft 259 kts 348°
2026-05-06 17:16 39.44320 20.87394 8754 ft 263 kts 352°
2026-05-06 17:16 39.46105 20.87753 8297 ft 264 kts 26°
2026-05-06 17:17 39.47394 20.89388 7867 ft 263 kts 63°
2026-05-06 17:17 39.47929 20.91634 7450 ft 259 kts 74°
2026-05-06 17:17 39.48476 20.93817 7105 ft 252 kts 67°
2026-05-06 17:17 39.49188 20.95852 6759 ft 244 kts 58°
2026-05-06 17:18 39.50322 20.97354 6467 ft 230 kts 26°
2026-05-06 17:18 39.51815 20.97829 6173 ft 218 kts 355°
2026-05-06 17:18 39.53215 20.97289 5907 ft 206 kts 326°
2026-05-06 17:18 39.54378 20.96251 5653 ft 199 kts 324°
2026-05-06 17:19 39.55471 20.95271 5361 ft 184 kts 324°
2026-05-06 17:19 39.56480 20.94366 5112 ft 169 kts 324°
2026-05-06 17:19 39.57404 20.93535 4889 ft 156 kts 323°
2026-05-06 17:19 39.58275 20.92748 4676 ft 151 kts 323°
2026-05-06 17:20 39.59140 20.91964 4418 ft 149 kts 324°
2026-05-06 17:20 39.59984 20.91198 4189 ft 148 kts 323°
2026-05-06 17:20 39.60831 20.90431 3961 ft 149 kts 323°
2026-05-06 17:20 39.61679 20.89666 3738 ft 149 kts 323°
2026-05-06 17:21 39.62527 20.88903 3497 ft 148 kts 324°
2026-05-06 17:21 39.63381 20.88167 3176 ft 146 kts 327°
2026-05-06 17:21 39.64254 20.87514 2821 ft 144 kts 329°
2026-05-06 17:21 39.65127 20.86884 2532 ft 142 kts 322°
2026-05-06 17:22 39.65904 20.86107 2345 ft 141 kts 320°
2026-05-06 17:22 39.66690 20.85337 2143 ft 141 kts 319°
2026-05-06 17:22 39.67452 20.84536 1965 ft 141 kts 316°
2026-05-06 17:22 39.68218 20.83739 1780 ft 141 kts 318°
2026-05-06 17:23 39.68987 20.82952 1621 ft 141 kts 319°
2026-05-06 17:23 39.69705 20.82215 1567 ft 115 kts 321°
2026-05-06 17:23 39.70103 20.81801 1565 ft 30 kts 322°
2026-05-06 17:23 39.70188 20.81700 1564 ft 10 kts 314°
2026-05-06 17:24 39.70212 20.81705 1564 ft 3 kts 109°
2026-05-06 17:24 39.70160 20.81756 1564 ft 18 kts 144°
2026-05-06 17:24 39.70053 20.81862 1566 ft 20 kts 141°
2026-05-06 17:24 39.69961 20.81953 1567 ft 12 kts 152°
2026-05-06 17:25 39.69888 20.81923 1566 ft 13 kts 228°
2026-05-06 17:25 39.69823 20.81867 1565 ft 12 kts 186°
2026-05-06 17:25 39.69743 20.81920 1565 ft 14 kts 143°
2026-05-06 17:25 39.69659 20.82004 1565 ft 15 kts 142°
2026-05-06 17:26 39.69592 20.82073 1565 ft 12 kts 142°
2026-05-06 17:26 39.69531 20.82136 1565 ft 8 kts 140°
2026-05-06 17:26 39.69485 20.82185 1565 ft 10 kts 142°
2026-05-06 17:26 39.69416 20.82179 1565 ft 12 kts 213°
2026-05-06 17:27 39.69393 20.82135 1564 ft 2 kts 232°
2026-05-06 17:27 39.69391 20.82132 1564 ft 0 kts 231°